Погода в Можи-дас-Крузес

Бразилия     23°31′52″S   46°12′04″W
темп.,
°C
ветер,
м/с
пор.,
м/с
влажн.,
%
обл.,
%
осадки,
мм/ч
давл.,
гПа
погр.,
м
1 марта, пн
пн100:00+19вюв129588 3.8 101468
03:00+18всв149893 8.5 1013205
06:00+18св149786 0.0 1013228
09:00+21св248767 0.0 1015364
12:00+27св116491 0.8 1013799
15:00+27всв116083 2.2 10111197
18:00+21юв2488100 2.3 1011155
21:00+19юв1291100 3.1 101461
2 марта, вт
вт200:00+18всв129351 0.0 101445
03:00+17св139658 0.0 101383
06:00+17св129797 0.0 101457
09:00+20ссв129198 0.0 1016222
12:00+26с236499 0.6 1015890
15:00+27с225586 1.4 10131161
18:00+23вюв128353 1.6 1013137
21:00+20вюв119177 2.8 101550
3 марта, ср
ср300:00+19ссв1291100 0.4 101652
03:00+18ссв119396 0.4 101546
06:00+17ссв129492 0.0 101651
09:00+22с248088 0.0 1017376
12:00+28ссз355345 0.0 10161647
15:00+28ссз345045 0.1 10141600
18:00+23сз1373100 0.4 1014153
21:00+19юв1184100 0.6 101672
4 марта, чт
чт400:00+19св0187100 0.0 101653
03:00+18ссв1191100 0.0 101546
06:00+17ссв129387 0.0 101543
09:00+22ссв257494 0.0 1015358
12:00+27ссз475399 0.0 10141582
15:00+27ссз465599 0.1 10121357
18:00+22зсз2683100 3.8 1011237
21:00+20сз1284100 3.9 1013106
5 марта, пт
пт500:00+20ссз138699 0.0 1012109
03:00+18ссз139199 0.1 101098
06:00+18ссз2693100 0.0 1010200
09:00+23ссз6117590 0.0 10111063
12:00+26сз6106379 0.2 10101459
15:00+24сз597773 2.0 10091187
18:00+21сз279093 1.7 1008321
21:00+20ссз159496 6.1 1010208